{"data":{"norad_id":52684,"epoch":"2026-05-25T01:25:48.376416Z","epoch_age_seconds":63132,"freshness":"FRESH","line1":"1 52684U 22053AE  26145.05958769 -.00000723  00000+0 -27323-4 0  9998","line2":"2 52684  53.2137 161.2834 0001136  74.6834 285.4284 15.08837637222665","mean_motion":15.08837637,"eccentricity":0.0001136,"inclination_deg":53.2137,"raan_deg":161.2834,"arg_perigee_deg":74.6834,"mean_anomaly_deg":285.4284,"bstar":-2.7323e-5,"rev_number":22266,"period_min":95.437704143113,"perigee_km":538.96473968651,"apogee_km":540.53648375189,"semimajor_km":6917.8876117192,"source":"CELESTRAK","updated_at":"2026-05-25T13:38:17.235102Z"}}